• In Hungary
  • List of Countries
  • For 7 days
  • Water Temperature
  • Satellite Maps
  • Weather Map
  • News
  • Weather Widgets
  • user-avatar
    Login

    Hourly Weather Sarymovka

    Today, 17 July, Tuesday

    Time Temperature Precipitation Wind Pressure Humidity
    00:00 +21°C° 0 mm 3 mps 740 mmHg 92%
    01:00 +21°C° 0 mm 3 mps 740 mmHg 93%
    02:00 +20°C° 0 mm 3 mps 740 mmHg 94%
    03:00 +20°C° 0 mm 3 mps 740 mmHg 94%
    04:00 +20°C° 0.2 mm 4 mps 740 mmHg 94%
    05:00 +20°C° 0.2 mm 4 mps 739 mmHg 93%
    06:00 +21°C° 0.2 mm 4 mps 739 mmHg 93%
    07:00 +22°C° 0.4 mm 4 mps 739 mmHg 89%
    08:00 +23°C° 0.4 mm 4 mps 739 mmHg 86%
    09:00 +25°C° 0.4 mm 4 mps 739 mmHg 83%
    10:00 +23°C° 0.9 mm 4 mps 739 mmHg 83%
    11:00 +23°C° 0.9 mm 5 mps 739 mmHg 84%
    12:00 +23°C° 0.9 mm 5 mps 738 mmHg 84%
    13:00 +22°C° 1.2 mm 5 mps 738 mmHg 86%
    14:00 +22°C° 1.2 mm 5 mps 738 mmHg 88%
    15:00 +21°C° 1.2 mm 5 mps 738 mmHg 90%
    16:00 +21°C° 0.7 mm 5 mps 737 mmHg 91%
    17:00 +21°C° 0.7 mm 5 mps 737 mmHg 91%
    18:00 +21°C° 0.7 mm 5 mps 737 mmHg 91%
    19:00 +21°C° 0.3 mm 5 mps 736 mmHg 92%
    20:00 +20°C° 0.3 mm 5 mps 736 mmHg 93%
    21:00 +20°C° 0.3 mm 5 mps 736 mmHg 94%
    22:00 +20°C° 0.1 mm 5 mps 735 mmHg 94%
    23:00 +20°C° 0.1 mm 5 mps 735 mmHg 95%

    Tomorrow, 18 July, Wednesday

    Time Temperature Precipitation Wind Pressure Humidity
    00:00 +20°C° 0.1 mm 5 mps 735 mmHg 95%
    01:00 +20°C° 0.1 mm 5 mps 735 mmHg 95%
    02:00 +20°C° 0.1 mm 5 mps 734 mmHg 96%
    03:00 +20°C° 0.1 mm 4 mps 734 mmHg 96%
    04:00 +20°C° 0.2 mm 4 mps 734 mmHg 96%
    05:00 +20°C° 0.2 mm 4 mps 734 mmHg 95%
    06:00 +19°C° 0.2 mm 4 mps 734 mmHg 95%
    07:00 +20°C° 0.1 mm 4 mps 734 mmHg 94%
    08:00 +20°C° 0.1 mm 5 mps 734 mmHg 93%
    09:00 +20°C° 0.1 mm 5 mps 734 mmHg 92%
    10:00 +20°C° 0.2 mm 5 mps 734 mmHg 91%
    11:00 +21°C° 0.2 mm 4 mps 734 mmHg 91%
    12:00 +21°C° 0.2 mm 4 mps 735 mmHg 90%
    13:00 +22°C° 0.6 mm 4 mps 735 mmHg 88%
    14:00 +22°C° 0.6 mm 4 mps 735 mmHg 85%
    15:00 +23°C° 0.6 mm 4 mps 735 mmHg 83%
    16:00 +23°C° 1 mm 4 mps 735 mmHg 84%
    17:00 +23°C° 1 mm 5 mps 735 mmHg 85%
    18:00 +23°C° 1 mm 5 mps 735 mmHg 86%
    19:00 +22°C° 0.9 mm 5 mps 735 mmHg 88%
    20:00 +21°C° 0.9 mm 5 mps 735 mmHg 91%
    21:00 +20°C° 0.9 mm 5 mps 736 mmHg 93%
    22:00 +20°C° 1.1 mm 5 mps 736 mmHg 94%
    23:00 +20°C° 1.1 mm 5 mps 736 mmHg 94%

    Day after tomorrow, 19 July, Thursday

    Time Temperature Precipitation Wind Pressure Humidity
    00:00 +20°C° 1.1 mm 5 mps 736 mmHg 94%
    01:00 +20°C° 0.9 mm 5 mps 736 mmHg 94%
    02:00 +20°C° 0.9 mm 5 mps 737 mmHg 94%
    03:00 +19°C° 0.9 mm 5 mps 737 mmHg 95%
    04:00 +19°C° 0.4 mm 5 mps 737 mmHg 94%
    05:00 +19°C° 0.4 mm 5 mps 738 mmHg 93%
    06:00 +19°C° 0.4 mm 5 mps 738 mmHg 93%
    07:00 +20°C° 0.2 mm 5 mps 738 mmHg 89%
    08:00 +21°C° 0.2 mm 6 mps 739 mmHg 84%
    09:00 +22°C° 0.2 mm 6 mps 739 mmHg 80%
    10:00 +23°C° 0.1 mm 6 mps 740 mmHg 75%
    11:00 +26°C° 0.1 mm 6 mps 740 mmHg 70%
    12:00 +27°C° 0.1 mm 6 mps 740 mmHg 65%
    13:00 +27°C° 0.5 mm 6 mps 740 mmHg 65%
    14:00 +27°C° 0.5 mm 6 mps 741 mmHg 66%
    15:00 +27°C° 0.5 mm 6 mps 741 mmHg 66%
    16:00 +27°C° 0.2 mm 5 mps 741 mmHg 70%
    17:00 +26°C° 0.2 mm 5 mps 741 mmHg 73%
    18:00 +26°C° 0.2 mm 4 mps 741 mmHg 76%
    19:00 +25°C° 0.9 mm 4 mps 741 mmHg 80%
    20:00 +23°C° 0.9 mm 4 mps 742 mmHg 84%
    21:00 +22°C° 0.9 mm 4 mps 742 mmHg 88%
    22:00 +21°C° 0.8 mm 4 mps 742 mmHg 89%
    23:00 +21°C° 0.8 mm 3 mps 742 mmHg 90%

    20 July, Friday

    Time Temperature Precipitation Wind Pressure Humidity
    00:00 +20°C° 0.8 mm 3 mps 742 mmHg 91%
    01:00 +20°C° 0 mm 3 mps 742 mmHg 92%
    02:00 +19°C° 0 mm 3 mps 742 mmHg 93%
    03:00 +19°C° 0 mm 3 mps 742 mmHg 94%
    04:00 +19°C° 0 mm 3 mps 742 mmHg 93%
    05:00 +20°C° 0 mm 3 mps 742 mmHg 92%
    06:00 +20°C° 0 mm 3 mps 743 mmHg 91%
    07:00 +21°C° 0 mm 3 mps 743 mmHg 87%
    08:00 +24°C° 0 mm 3 mps 743 mmHg 83%
    09:00 +25°C° 0 mm 3 mps 743 mmHg 78%
    10:00 +27°C° 0.9 mm 4 mps 742 mmHg 74%
    11:00 +28°C° 0.9 mm 4 mps 742 mmHg 70%
    12:00 +29°C° 0.9 mm 5 mps 742 mmHg 66%
    13:00 +29°C° 1 mm 4 mps 742 mmHg 66%
    14:00 +29°C° 1 mm 4 mps 742 mmHg 66%
    15:00 +30°C° 1 mm 3 mps 742 mmHg 66%
    16:00 +29°C° 0.8 mm 3 mps 742 mmHg 70%
    17:00 +28°C° 0.8 mm 3 mps 742 mmHg 75%
    18:00 +28°C° 0.8 mm 2 mps 742 mmHg 79%
    19:00 +26°C° 0 mm 2 mps 742 mmHg 82%
    20:00 +25°C° 0 mm 2 mps 742 mmHg 85%
    21:00 +24°C° 0 mm 2 mps 742 mmHg 88%
    22:00 +23°C° 0.2 mm 2 mps 742 mmHg 90%
    23:00 +23°C° 0.2 mm 2 mps 742 mmHg 91%

    21 July, Saturday

    Time Temperature Precipitation Wind Pressure Humidity
    00:00 +21°C° 0.2 mm 2 mps 742 mmHg 92%
    01:00 +21°C° 0 mm 2 mps 742 mmHg 93%
    02:00 +21°C° 0 mm 2 mps 742 mmHg 93%
    03:00 +20°C° 0 mm 2 mps 742 mmHg 93%
    04:00 +20°C° 0 mm 2 mps 742 mmHg 93%
    05:00 +21°C° 0 mm 2 mps 742 mmHg 93%
    06:00 +21°C° 0 mm 2 mps 743 mmHg 93%
    07:00 +23°C° 0.2 mm 2 mps 743 mmHg 89%
    08:00 +24°C° 0.2 mm 3 mps 743 mmHg 84%
    09:00 +26°C° 0.2 mm 3 mps 743 mmHg 80%
    10:00 +27°C° 0.5 mm 3 mps 743 mmHg 75%
    11:00 +28°C° 0.5 mm 3 mps 743 mmHg 70%
    12:00 +29°C° 0.5 mm 3 mps 743 mmHg 65%
    13:00 +29°C° 0.3 mm 3 mps 743 mmHg 64%
    14:00 +30°C° 0.3 mm 3 mps 743 mmHg 63%
    15:00 +30°C° 0.3 mm 3 mps 742 mmHg 62%
    16:00 +30°C° 0.3 mm 3 mps 742 mmHg 66%
    17:00 +29°C° 0.3 mm 3 mps 742 mmHg 69%
    18:00 +29°C° 0.3 mm 2 mps 742 mmHg 73%
    19:00 +27°C° 0.1 mm 2 mps 742 mmHg 77%
    20:00 +26°C° 0.1 mm 2 mps 742 mmHg 81%
    21:00 +24°C° 0.1 mm 2 mps 743 mmHg 86%
    22:00 +23°C° 0.1 mm 2 mps 742 mmHg 87%
    23:00 +23°C° 0.1 mm 2 mps 742 mmHg 89%

    22 July, Sunday

    Time Temperature Precipitation Wind Pressure Humidity
    00:00 +21°C° 0.1 mm 2 mps 742 mmHg 90%
    01:00 +21°C° 0 mm 2 mps 742 mmHg 91%
    02:00 +21°C° 0 mm 2 mps 742 mmHg 92%
    03:00 +20°C° 0 mm 2 mps 742 mmHg 93%
    04:00 +21°C° 0 mm 2 mps 742 mmHg 92%
    05:00 +21°C° 0 mm 2 mps 742 mmHg 91%
    06:00 +21°C° 0 mm 2 mps 742 mmHg 90%
    07:00 +24°C° 0.3 mm 2 mps 742 mmHg 85%
    08:00 +25°C° 0.3 mm 3 mps 742 mmHg 80%
    09:00 +27°C° 0.3 mm 3 mps 742 mmHg 75%
    10:00 +28°C° 0.4 mm 3 mps 742 mmHg 70%
    11:00 +29°C° 0.4 mm 3 mps 742 mmHg 66%
    12:00 +30°C° 0.4 mm 3 mps 742 mmHg 61%
    13:00 +30°C° 0.7 mm 3 mps 742 mmHg 61%
    14:00 +30°C° 0.7 mm 3 mps 742 mmHg 62%
    15:00 +31°C° 0.7 mm 3 mps 741 mmHg 63%
    16:00 +30°C° 1.6 mm 3 mps 741 mmHg 68%
    17:00 +29°C° 1.6 mm 3 mps 741 mmHg 73%
    18:00 +28°C° 1.6 mm 2 mps 741 mmHg 78%
    19:00 +27°C° 0.6 mm 2 mps 742 mmHg 82%
    20:00 +25°C° 0.6 mm 3 mps 742 mmHg 86%
    21:00 +24°C° 0.6 mm 3 mps 742 mmHg 90%
    22:00 +24°C° 0.3 mm 3 mps 742 mmHg 91%
    23:00 +22°C° 0.3 mm 3 mps 742 mmHg 93%
    Show more